DateTimeUTC,F1_A11,F1_S11,BsB_S11,BsG_S11,BsR_S11,BbsB_S11,BbsG_S11,BbsR_S11,BaB_A11,BaG_A11,BaR_A11,Tu_S11,T_S11,Uu_S11,U_S11,P_S11,T1_A11
2021-05-26T13:00:00Z,00000200,20000000,,,,,,,-000.05,-000.47,-000.33,17.4,23.7,11.1,07.5,0675.0,30.9
2021-05-26T13:01:00Z,00000200,20000000,,,,,,,0000.08,-000.03,0000.20,17.4,23.8,11.0,07.4,0675.1,30.9
2021-05-26T13:02:00Z,00000200,20000000,,,,,,,-000.40,0000.19,0000.19,17.4,23.8,11.0,07.4,0675.1,30.9
2021-05-26T13:03:00Z,00000200,60000000,,,,,,,0000.52,0000.62,0000.75,17.4,23.8,11.0,07.4,0675.1,30.9
2021-05-26T13:04:00Z,00000200,40000000,0008.05,0005.77,0003.92,0001.25,0000.61,0000.18,0000.36,0000.23,0000.37,17.5,23.7,11.1,07.6,0676.2,30.9
2021-05-26T13:05:00Z,00000200,00000000,0007.62,0005.75,0003.68,0001.13,0000.54,0000.74,0000.13,0000.43,0000.64,17.5,23.6,11.2,07.7,0676.2,30.9
2021-05-26T13:06:00Z,00000200,00000000,0007.40,0005.49,0003.68,0000.59,0000.52,0000.32,0000.23,0000.37,0000.21,17.6,23.6,11.0,07.6,0676.3,30.9
2021-05-26T13:07:00Z,00000200,00000000,0007.24,0005.81,0003.65,0000.71,0000.54,0000.25,0000.06,0000.13,0000.46,17.6,23.6,11.2,07.7,0676.3,30.8
2021-05-26T13:08:00Z,00000200,00000000,0006.93,0005.61,0003.64,0001.21,0000.52,0000.36,0000.33,0000.40,0000.41,17.6,23.6,11.1,07.7,0676.5,30.8
2021-05-26T13:09:00Z,00000200,00000000,0007.08,0005.65,0004.03,0001.23,0000.69,0000.60,0000.14,0000.08,0000.38,17.6,23.6,11.2,07.7,0676.5,30.8
2021-05-26T13:10:00Z,00000200,00000000,0007.37,0005.70,0003.66,0000.97,0000.36,0000.50,-000.13,-000.24,0000.64,17.6,23.6,11.2,07.7,0676.3,30.9
2021-05-26T13:11:00Z,00000200,00000000,0007.13,0005.70,0003.82,0001.27,0000.71,0000.36,0000.40,0000.82,0000.18,17.6,23.6,11.2,07.7,0676.3,30.9
2021-05-26T13:12:00Z,00000200,00000000,0007.59,0005.47,0003.68,0000.65,0000.49,0000.25,0000.25,0000.61,0001.00,17.6,23.6,11.3,07.8,0676.4,30.9
2021-05-26T13:13:00Z,00000200,00000000,0007.05,0006.20,0003.57,0001.19,0000.71,0000.27,0000.58,0000.01,0000.02,17.6,23.6,11.4,07.8,0676.5,30.9
2021-05-26T13:14:00Z,00000200,00000000,0007.89,0005.54,0003.67,0001.24,0000.52,0000.30,0000.04,0000.35,0000.56,17.6,23.6,11.4,07.9,0676.4,30.9
2021-05-26T13:15:00Z,00000200,00000000,0007.35,0005.74,0003.63,0000.44,0000.36,0000.25,-000.38,-000.14,0000.30,17.6,23.6,11.4,07.8,0676.4,30.9
2021-05-26T13:16:00Z,00000200,00000000,0007.86,0005.62,0003.79,0000.66,0000.50,0000.93,0000.95,0000.71,0001.19,17.6,23.6,11.3,07.8,0676.5,30.9
2021-05-26T13:17:00Z,00000200,00000000,0006.70,0005.27,0003.59,0000.92,0000.43,0000.44,0000.01,0000.55,0000.19,17.6,23.6,11.4,07.9,0676.4,30.8
2021-05-26T13:18:00Z,00000200,00000000,0007.05,0005.87,0003.74,0000.75,0000.37,0000.30,0000.32,0000.19,0000.22,17.6,23.6,11.5,07.9,0676.4,30.8
2021-05-26T13:19:00Z,00000200,00000000,0006.68,0005.62,0003.78,0001.02,0000.48,0000.63,-000.37,-000.02,0000.52,17.6,23.6,11.4,07.9,0676.4,30.9
2021-05-26T13:20:00Z,00000200,00000000,0007.26,0005.92,0003.76,0000.85,0000.19,0000.39,0000.51,0000.08,0000.41,17.6,23.6,11.5,07.9,0676.5,30.9
2021-05-26T13:21:00Z,00000200,00000000,0007.29,0005.71,0003.61,0001.17,0000.25,0000.43,-000.41,0000.22,0000.11,17.6,23.6,11.4,07.9,0676.3,30.9
2021-05-26T13:22:00Z,00000200,00000000,0007.66,0005.71,0003.60,0001.14,0000.42,0000.40,0000.53,0000.31,0000.38,17.6,23.6,11.3,07.8,0676.2,30.8
2021-05-26T13:23:00Z,00000200,00000000,0007.04,0005.84,0003.65,0001.00,0000.39,0000.25,0000.08,0000.22,0000.65,17.7,23.6,11.5,07.9,0676.4,30.8
2021-05-26T13:24:00Z,00000200,00000000,0008.14,0005.85,0004.03,0001.34,0000.40,0000.33,0000.33,0000.52,0000.62,17.6,23.6,11.5,07.9,0676.3,30.9
2021-05-26T13:25:00Z,00000200,00000000,0007.12,0005.74,0003.98,0000.91,0000.42,0000.70,0000.05,-000.00,0000.33,17.7,23.6,11.4,07.9,0676.2,30.9
2021-05-26T13:26:00Z,00000200,00000000,0007.53,0005.84,0003.64,0000.94,0000.38,0000.23,0000.21,0000.30,0000.31,17.7,23.6,11.4,07.9,0676.4,30.8
2021-05-26T13:27:00Z,00000200,00000000,0007.92,0005.84,0003.71,0000.77,0000.49,0000.34,0000.19,0000.30,0000.36,17.6,23.7,11.4,07.9,0676.3,30.8
2021-05-26T13:28:00Z,00000200,00000000,0007.38,0005.69,0003.64,0000.58,0000.20,0000.39,0000.24,0000.26,0000.56,17.7,23.7,11.4,07.9,0676.3,30.8
2021-05-26T13:29:00Z,00000200,00000000,0007.46,0005.46,0003.60,0001.08,0000.55,0000.54,-000.05,-000.10,0000.11,17.7,23.7,11.4,07.9,0676.2,30.8
2021-05-26T13:30:00Z,00000200,00000000,0006.89,0005.42,0003.48,0000.53,0000.45,0000.25,-000.06,0000.25,0000.71,17.7,23.7,11.2,07.8,0676.2,30.9
2021-05-26T13:31:00Z,00000200,00000000,0007.25,0005.71,0003.20,0001.30,0000.42,0000.38,0000.15,0000.21,0000.18,17.7,23.7,11.4,07.9,0676.3,30.9
2021-05-26T13:32:00Z,00000200,00000000,0007.16,0005.48,0003.82,0001.28,0000.54,0000.18,0000.12,0000.32,0000.33,17.7,23.7,11.3,07.8,0676.3,30.9
2021-05-26T13:33:00Z,00000200,00000000,0007.58,0005.50,0003.83,0001.21,0000.39,0000.63,0000.27,0000.16,0000.91,17.7,23.7,11.3,07.8,0676.5,30.9
2021-05-26T13:34:00Z,00000200,00000000,0007.75,0005.35,0003.65,0000.32,0000.61,0000.29,0000.08,0000.56,0000.18,17.6,23.7,11.2,07.7,0676.6,30.9
2021-05-26T13:35:00Z,00000200,00000000,0007.28,0005.60,0003.50,0000.76,0000.41,0000.26,0000.17,-000.37,0000.12,17.7,23.7,11.3,07.8,0676.5,30.9
2021-05-26T13:36:00Z,00000200,00000000,0007.19,0005.58,0003.73,0001.26,0000.46,0000.38,0000.04,0000.16,0000.41,17.7,23.7,11.3,07.8,0676.4,30.9
2021-05-26T13:37:00Z,00000200,00000000,0006.51,0005.90,0003.90,0000.43,0000.42,0000.36,0000.13,0000.66,0000.60,17.7,23.7,11.3,07.8,0676.5,30.9
2021-05-26T13:38:00Z,00000200,00000000,0006.72,0005.57,0003.51,0000.45,0000.52,0000.32,0000.39,0000.11,0000.32,17.7,23.7,11.2,07.8,0676.4,30.9
2021-05-26T13:39:00Z,00000200,00000000,0006.91,0005.43,0003.45,0000.50,0000.59,0000.23,-000.22,0000.45,0000.44,17.7,23.7,11.2,07.7,0676.5,30.9
2021-05-26T13:40:00Z,00000200,00000000,0007.44,0005.58,0003.58,0001.31,0000.26,0000.15,0000.50,-000.12,0000.46,17.7,23.7,11.2,07.7,0676.5,30.9
2021-05-26T13:41:00Z,00000200,00000000,0007.15,0005.25,0003.26,0000.91,0000.33,0000.24,0000.27,0000.52,0000.48,17.7,23.7,11.3,07.8,0676.7,30.9
2021-05-26T13:42:00Z,00000200,00000000,0007.27,0005.12,0003.58,0001.05,0000.34,0000.56,0000.31,0000.13,0000.54,17.6,23.7,11.4,07.9,0676.8,30.9
2021-05-26T13:43:00Z,00000200,00000000,0006.83,0005.56,0003.57,0000.96,0000.56,0000.34,-000.19,0000.23,0000.42,17.7,23.7,11.4,07.9,0676.7,30.8
2021-05-26T13:44:00Z,00000200,00000000,0006.29,0005.65,0003.35,0000.61,0000.38,0000.33,-000.02,0000.41,0000.10,17.7,23.7,11.3,07.8,0676.8,30.9
2021-05-26T13:45:00Z,00000200,00000000,0006.89,0005.38,0003.37,0001.01,0000.27,0000.62,0000.51,0000.34,0000.48,17.7,23.7,11.3,07.8,0676.9,30.9
2021-05-26T13:46:00Z,00000200,00000000,0006.97,0004.91,0003.38,0000.98,0000.34,0000.50,0000.07,0000.17,0000.23,17.7,23.7,11.3,07.8,0676.8,30.9
2021-05-26T13:47:00Z,00000200,00000000,0006.88,0005.04,0003.68,0000.50,0000.39,0000.41,0000.01,0000.06,0000.35,17.6,23.7,11.3,07.8,0676.9,30.8
2021-05-26T13:48:00Z,00000200,00000000,0007.29,0004.83,0003.56,0001.03,0000.60,0000.34,0000.35,0000.56,0000.35,17.6,23.7,11.3,07.8,0676.8,30.8
2021-05-26T13:49:00Z,00000200,00000000,0006.57,0005.08,0003.02,0000.66,0000.44,0000.09,-000.07,0000.16,0000.54,17.6,23.7,11.3,07.8,0676.8,30.9
2021-05-26T13:50:00Z,00000200,00000000,0006.33,0005.18,0003.80,0000.69,0000.45,0000.42,0000.57,0000.29,0000.60,17.7,23.7,11.3,07.8,0676.9,30.9
2021-05-26T13:51:00Z,00000200,00000000,0007.47,0004.83,0003.58,0001.27,0000.50,0000.39,-000.52,0000.15,0000.36,17.6,23.7,11.4,07.9,0676.9,30.8
2021-05-26T13:52:00Z,00000200,00000000,0006.08,0005.12,0003.26,0000.81,0000.37,0000.40,0000.39,0000.10,0000.02,17.6,23.7,11.4,07.8,0676.8,30.8
2021-05-26T13:53:00Z,00000200,00000000,0007.05,0005.09,0003.40,0001.03,0000.44,0000.44,0000.34,0000.33,0000.83,17.6,23.7,11.3,07.8,0676.9,30.8
2021-05-26T13:54:00Z,00000200,00000000,0006.38,0004.95,0002.93,0000.72,0000.79,0000.13,0000.05,0000.09,0000.15,17.6,23.7,11.3,07.8,0676.9,30.8
2021-05-26T13:55:00Z,00000200,00000000,0006.31,0004.77,0003.48,0000.86,0000.44,0000.57,0000.19,0000.30,0000.42,17.6,23.7,11.3,07.8,0677.0,30.8
2021-05-26T13:56:00Z,00000200,00000000,0005.95,0004.94,0003.47,0000.71,0000.51,0000.22,0000.24,0000.42,0000.64,17.7,23.7,11.3,07.8,0677.0,30.8
2021-05-26T13:57:00Z,00000200,40000000,,,,,,,0000.24,-000.14,0000.19,17.7,23.7,11.3,07.8,0676.8,30.8
2021-05-26T13:58:00Z,00000200,60000000,,,,,,,-000.29,-000.12,-000.03,17.5,23.8,11.5,07.8,0675.9,30.8
2021-05-26T13:59:00Z,00000200,20000000,,,,,,,-000.38,-000.42,-000.49,17.5,23.9,11.3,07.6,0675.9,30.8
